TimeCST,TemperatureF,Dew PointF,Humidity,Sea Level PressureIn,VisibilityMPH,Wind Direction,Wind SpeedMPH,Gust SpeedMPH,PrecipitationIn,Events,Conditions,WindDirDegrees,DateUTC
12:53 AM,54.0,37.9,55,30.04,10.0,South,13.8,-,N/A,,Clear,170,2012-11-22 06:53:00
1:53 AM,54.0,37.9,55,30.03,10.0,South,12.7,-,N/A,,Clear,170,2012-11-22 07:53:00
2:53 AM,53.1,39.0,59,30.01,10.0,SSE,9.2,-,N/A,,Clear,160,2012-11-22 08:53:00
3:53 AM,55.0,39.9,57,30.01,10.0,South,13.8,21.9,N/A,,Clear,170,2012-11-22 09:53:00
4:53 AM,60.1,39.9,47,30.00,10.0,South,16.1,24.2,N/A,,Clear,190,2012-11-22 10:53:00
5:53 AM,59.0,39.9,49,30.00,10.0,South,16.1,-,N/A,,Clear,180,2012-11-22 11:53:00
6:53 AM,57.0,39.9,53,30.01,10.0,South,17.3,23.0,N/A,,Clear,190,2012-11-22 12:53:00
7:53 AM,57.9,39.9,51,30.01,10.0,South,19.6,27.6,N/A,,Clear,190,2012-11-22 13:53:00
8:53 AM,60.1,41.0,49,30.00,10.0,South,18.4,29.9,N/A,,Clear,190,2012-11-22 14:53:00
9:53 AM,62.1,43.0,50,30.01,10.0,South,19.6,28.8,N/A,,Clear,190,2012-11-22 15:53:00
10:53 AM,64.0,44.1,48,29.99,10.0,South,23.0,31.1,N/A,,Clear,190,2012-11-22 16:53:00
11:53 AM,64.0,45.0,50,29.97,10.0,SSW,15.0,24.2,N/A,,Clear,200,2012-11-22 17:53:00
12:53 PM,66.9,46.0,47,29.95,10.0,South,15.0,24.2,N/A,,Clear,190,2012-11-22 18:53:00
1:53 PM,68.0,46.9,47,29.93,10.0,South,19.6,29.9,N/A,,Clear,190,2012-11-22 19:53:00
2:53 PM,69.1,46.9,45,29.92,10.0,SSW,18.4,28.8,N/A,,Clear,200,2012-11-22 20:53:00
3:53 PM,69.1,46.9,45,29.92,10.0,South,20.7,25.3,N/A,,Clear,190,2012-11-22 21:53:00
4:53 PM,66.0,46.9,50,29.96,10.0,SSW,10.4,-,N/A,,Clear,200,2012-11-22 22:53:00
5:53 PM,62.1,46.9,58,30.00,10.0,South,8.1,-,N/A,,Clear,190,2012-11-22 23:53:00
6:53 PM,62.1,48.0,60,30.01,10.0,South,8.1,-,N/A,,Mostly Cloudy,170,2012-11-23 00:53:00
7:53 PM,59.0,46.9,64,30.02,10.0,South,8.1,-,N/A,,Mostly Cloudy,180,2012-11-23 01:53:00
8:53 PM,63.0,48.9,60,30.08,10.0,West,12.7,-,0.00,,Overcast,280,2012-11-23 02:53:00
9:11 PM,60.8,48.2,63,30.12,10.0,North,23.0,27.6,N/A,,Overcast,360,2012-11-23 03:11:00
9:53 PM,57.9,42.1,56,30.15,10.0,North,16.1,-,N/A,,Overcast,360,2012-11-23 03:53:00
10:53 PM,55.9,39.9,55,30.21,10.0,North,15.0,24.2,N/A,,Overcast,350,2012-11-23 04:53:00
11:53 PM,53.1,37.9,57,30.24,10.0,North,15.0,23.0,N/A,,Mostly Cloudy,360,2012-11-23 05:53:00